| time (UTC) | temp F | wind direction | speed MPH | gust MPH | rain 1hr in | rain 24hr in | rain mn in | humidity % | barometer mb |
| 20260506095838 | 76 | 213 | 3.0 | 5.0 | 0.00 | 0.00 | 0.00 | 94 | 1009.6 |
| 20260506095335 | 76 | 159 | 1.0 | 4.0 | 0.00 | 0.00 | 0.00 | 94 | 1009.5 |
| 20260506094832 | 76 | 196 | 0.0 | 5.0 | 0.00 | 0.00 | 0.00 | 94 | 1009.6 |
| 20260506094331 | 76 | 144 | 2.0 | 4.0 | 0.00 | 0.00 | 0.00 | 94 | 1009.7 |
| 20260506093829 | 76 | 181 | 2.0 | 4.0 | 0.00 | 0.00 | 0.00 | 94 | 1009.5 |
| 20260506093326 | 76 | 115 | 2.0 | 4.0 | 0.00 | 0.00 | 0.00 | 94 | 1009.4 |
| 20260506092823 | 76 | 185 | 5.0 | 7.0 | 0.00 | 0.00 | 0.00 | 94 | 1009.4 |
| 20260506092321 | 76 | 232 | 2.0 | 6.0 | 0.00 | 0.00 | 0.00 | 94 | 1009.6 |
| 20260506091818 | 76 | 187 | 2.0 | 4.0 | 0.00 | 0.00 | 0.00 | 94 | 1009.6 |
| 20260506091315 | 76 | 209 | 2.0 | 3.0 | 0.00 | 0.00 | 0.00 | 94 | 1009.4 |
| 20260506090813 | 76 | 216 | 1.0 | 3.0 | 0.00 | 0.00 | 0.00 | 94 | 1009.6 |
| 20260506090310 | 76 | 207 | 2.0 | 4.0 | 0.00 | 0.00 | 0.00 | 94 | 1009.7 |
| 20260506085807 | 76 | 77 | 1.0 | 4.0 | 0.00 | 0.00 | 0.00 | 94 | 1009.9 |
| 20260506085305 | 76 | 230 | 0.0 | 4.0 | 0.00 | 0.00 | 0.00 | 94 | 1009.9 |
| 20260506084759 | 76 | 312 | 0.0 | 2.0 | 0.00 | 0.00 | 0.00 | 94 | 1009.8 |
| 20260506084256 | 76 | 209 | 2.0 | 4.0 | 0.00 | 0.00 | 0.00 | 94 | 1009.9 |
| 20260506083753 | 76 | 221 | 1.0 | 3.0 | 0.00 | 0.00 | 0.00 | 94 | 1010.0 |
| 20260506083251 | 76 | 203 | 0.0 | 2.0 | 0.00 | 0.00 | 0.00 | 94 | 1009.9 |
| 20260506082748 | 76 | 203 | 2.0 | 3.0 | 0.00 | 0.00 | 0.00 | 94 | 1010.0 |
| 20260506082243 | 76 | 261 | 3.0 | 3.0 | 0.00 | 0.00 | 0.00 | 93 | 1009.8 |
| 20260506081741 | 76 | 232 | 1.0 | 4.0 | 0.00 | 0.00 | 0.00 | 93 | 1010.1 |
| 20260506081238 | 76 | 224 | 2.0 | 3.0 | 0.00 | 0.00 | 0.00 | 93 | 1009.7 |
| 20260506080737 | 76 | 300 | 2.0 | 4.0 | 0.00 | 0.00 | 0.00 | 93 | 1010.0 |
| 20260506080232 | 76 | 225 | 2.0 | 3.0 | 0.00 | 0.00 | 0.00 | 93 | 1009.9 |
| 20260506073217 | 76 | 244 | 1.0 | 3.0 | 0.00 | 0.00 | 0.00 | 93 | 1010.3 |
| 20260506072713 | 76 | 177 | 1.0 | 6.0 | 0.00 | 0.00 | 0.00 | 93 | 1010.1 |
| 20260506072211 | 76 | 231 | 2.0 | 4.0 | 0.00 | 0.00 | 0.00 | 93 | 1010.3 |
| 20260506071708 | 76 | 243 | 2.0 | 4.0 | 0.00 | 0.00 | 0.00 | 93 | 1010.3 |
| 20260506071206 | 76 | 207 | 4.0 | 4.0 | 0.00 | 0.00 | 0.00 | 92 | 1010.4 |
| 20260506070703 | 76 | 229 | 3.0 | 4.0 | 0.00 | 0.00 | 0.00 | 93 | 1010.1 |
| 20260506070200 | 76 | 213 | 2.0 | 4.0 | 0.00 | 0.00 | 0.00 | 92 | 1010.3 |
| 20260506062137 | 76 | 228 | 1.0 | 5.0 | 0.00 | 0.00 | 0.00 | 92 | 1010.2 |
| 20260506061632 | 76 | 184 | 2.0 | 6.0 | 0.00 | 0.00 | 0.00 | 92 | 1010.2 |
| 20260506061131 | 76 | 209 | 2.0 | 5.0 | 0.00 | 0.00 | 0.00 | 92 | 1010.2 |
| 20260506060629 | 76 | 191 | 4.0 | 7.0 | 0.00 | 0.00 | 0.00 | 92 | 1010.0 |
| 20260506060125 | 76 | 236 | 2.0 | 5.0 | 0.00 | 0.00 | 0.00 | 91 | 1010.0 |
| 20260506051057 | 76 | 230 | 4.0 | 6.0 | 0.00 | 0.00 | 0.00 | 91 | 1010.3 |
| 20260506050555 | 76 | 190 | 4.0 | 5.0 | 0.00 | 0.00 | 0.00 | 91 | 1010.2 |
| 20260506045046 | 76 | 244 | 3.0 | 6.0 | 0.00 | 0.00 | 0.00 | 91 | 1010.3 |
| 20260506044544 | 76 | 258 | 4.0 | 6.0 | 0.00 | 0.00 | 0.00 | 91 | 1010.5 |
| 20260506044040 | 76 | 179 | 4.0 | 4.0 | 0.00 | 0.00 | 0.00 | 90 | 1010.6 |
| 20260506043537 | 76 | 228 | 2.0 | 9.0 | 0.00 | 0.00 | 0.00 | 90 | 1010.7 |
| 20260506043036 | 76 | 141 | 3.0 | 6.0 | 0.00 | 0.00 | 0.00 | 90 | 1010.7 |
| 20260506042534 | 76 | 202 | 2.0 | 5.0 | 0.00 | 0.00 | 0.00 | 90 | 1010.1 |
| 20260506042032 | 77 | 148 | 0.0 | 8.0 | 0.00 | 0.00 | 0.00 | 90 | 1010.4 |
| 20260506041531 | 76 | 216 | 3.0 | 5.0 | 0.00 | 0.00 | 0.00 | 90 | 1010.3 |
| 20260506041027 | 77 | 216 | 3.0 | 6.0 | 0.00 | 0.00 | 0.00 | 90 | 1010.3 |
| 20260506040525 | 77 | 220 | 6.0 | 9.0 | 0.00 | 0.00 | 0.00 | 90 | 1010.4 |
| 20260506040020 | 76 | 242 | 2.0 | 7.0 | 0.00 | 0.00 | 0.00 | 90 | 1010.2 |
| 20260506035518 | 76 | 218 | 4.0 | 9.0 | 0.00 | 0.00 | 0.00 | 90 | 1010.5 |
| 20260506035014 | 76 | 216 | 4.0 | 6.0 | 0.00 | 0.00 | 0.00 | 90 | 1010.2 |
| 20260506034512 | 76 | 229 | 2.0 | 8.0 | 0.00 | 0.00 | 0.00 | 90 | 1010.4 |
| 20260506034009 | 76 | 218 | 4.0 | 9.0 | 0.00 | 0.00 | 0.00 | 90 | 1010.2 |
| 20260506033506 | 76 | 304 | 2.0 | 5.0 | 0.00 | 0.00 | 0.00 | 91 | 1010.1 |
| 20260506033002 | 76 | 218 | 2.0 | 5.0 | 0.00 | 0.00 | 0.00 | 91 | 1009.9 |
| 20260506032500 | 76 | 166 | 2.0 | 5.0 | 0.00 | 0.00 | 0.00 | 91 | 1010.0 |
| 20260506031956 | 76 | 234 | 2.0 | 7.0 | 0.00 | 0.00 | 0.00 | 91 | 1010.1 |
| 20260506031454 | 76 | 131 | 2.0 | 9.0 | 0.00 | 0.00 | 0.00 | 91 | 1009.9 |
| 20260506030951 | 76 | 240 | 2.0 | 4.0 | 0.00 | 0.00 | 0.00 | 91 | 1009.9 |
| 20260506030449 | 76 | 217 | 1.0 | 5.0 | 0.00 | 0.00 | 0.00 | 91 | 1010.0 |
| 20260506025946 | 76 | 328 | 3.0 | 5.0 | 0.00 | 0.00 | 0.00 | 91 | 1009.8 |
| 20260506025443 | 76 | 209 | 2.0 | 6.0 | 0.00 | 0.00 | 0.00 | 91 | 1009.8 |
| 20260506024939 | 76 | 222 | 3.0 | 6.0 | 0.00 | 0.00 | 0.00 | 91 | 1009.6 |
| 20260506024436 | 76 | 223 | 2.0 | 6.0 | 0.00 | 0.00 | 0.00 | 91 | 1009.5 |
| 20260506023932 | 76 | 275 | 2.0 | 7.0 | 0.00 | 0.00 | 0.00 | 90 | 1009.4 |
| 20260506023429 | 76 | 193 | 2.0 | 6.0 | 0.00 | 0.00 | 0.00 | 90 | 1009.4 |
| 20260506022926 | 77 | 202 | 3.0 | 5.0 | 0.00 | 0.00 | 0.00 | 90 | 1009.7 |
| 20260506022424 | 77 | 219 | 3.0 | 4.0 | 0.00 | 0.00 | 0.00 | 90 | 1009.5 |
| 20260506021921 | 77 | 121 | 2.0 | 11.0 | 0.00 | 0.00 | 0.00 | 90 | 1009.1 |
| 20260506021418 | 77 | 209 | 3.0 | 6.0 | 0.00 | 0.00 | 0.00 | 89 | 1009.2 |
| 20260506020915 | 77 | 169 | 2.0 | 4.0 | 0.00 | 0.00 | 0.00 | 89 | 1009.2 |
| 20260506020413 | 77 | 192 | 5.0 | 5.0 | 0.00 | 0.00 | 0.00 | 89 | 1009.2 |
| 20260506015910 | 77 | 196 | 3.0 | 7.0 | 0.00 | 0.00 | 0.00 | 89 | 1009.1 |
| 20260506015408 | 77 | 212 | 2.0 | 6.0 | 0.00 | 0.00 | 0.00 | 89 | 1009.0 |
| 20260506014904 | 77 | 166 | 2.0 | 6.0 | 0.00 | 0.00 | 0.00 | 89 | 1008.9 |
| 20260506014401 | 77 | 206 | 4.0 | 9.0 | 0.00 | 0.00 | 0.00 | 88 | 1008.7 |
| 20260506013858 | 77 | 141 | 3.0 | 6.0 | 0.00 | 0.00 | 0.00 | 88 | 1008.9 |
| 20260506013356 | 77 | 163 | 3.0 | 7.0 | 0.00 | 0.00 | 0.00 | 88 | 1009.0 |
| 20260506012851 | 78 | 203 | 5.0 | 7.0 | 0.00 | 0.00 | 0.00 | 88 | 1009.3 |
| 20260506012348 | 78 | 146 | 1.0 | 7.0 | 0.00 | 0.00 | 0.00 | 88 | 1008.9 |
| 20260506011846 | 78 | 210 | 4.0 | 5.0 | 0.00 | 0.00 | 0.00 | 88 | 1008.9 |
| 20260506011342 | 78 | 207 | 3.0 | 8.0 | 0.00 | 0.00 | 0.00 | 88 | 1009.0 |
| 20260506010840 | 78 | 220 | 4.0 | 5.0 | 0.00 | 0.00 | 0.00 | 87 | 1009.0 |
| 20260506010338 | 78 | 169 | 4.0 | 6.0 | 0.00 | 0.00 | 0.00 | 87 | 1008.7 |
| 20260506005834 | 78 | 264 | 2.0 | 4.0 | 0.00 | 0.00 | 0.00 | 87 | 1008.8 |
| 20260506005331 | 78 | 92 | 4.0 | 10.0 | 0.00 | 0.00 | 0.00 | 87 | 1008.5 |
| 20260506004827 | 78 | 169 | 3.0 | 6.0 | 0.00 | 0.00 | 0.00 | 87 | 1008.6 |
| 20260506004325 | 78 | 121 | 4.0 | 12.0 | 0.00 | 0.00 | 0.00 | 87 | 1008.2 |
| 20260506003821 | 78 | 226 | 4.0 | 5.0 | 0.00 | 0.00 | 0.00 | 86 | 1008.5 |
| 20260506003317 | 78 | 207 | 4.0 | 6.0 | 0.00 | 0.00 | 0.00 | 86 | 1008.5 |
| 20260506002813 | 78 | 138 | 4.0 | 8.0 | 0.00 | 0.00 | 0.00 | 86 | 1008.3 |
| 20260506002310 | 78 | 188 | 5.0 | 6.0 | 0.00 | 0.00 | 0.00 | 86 | 1008.4 |
| 20260506001806 | 78 | 177 | 2.0 | 8.0 | 0.00 | 0.00 | 0.00 | 86 | 1008.8 |
| 20260506001303 | 78 | 194 | 2.0 | 12.0 | 0.00 | 0.00 | 0.00 | 86 | 1008.6 |
| 20260506000800 | 78 | 191 | 2.0 | 6.0 | 0.00 | 0.00 | 0.00 | 86 | 1008.6 |
| 20260506000258 | 79 | 168 | 2.0 | 7.0 | 0.00 | 0.00 | 0.00 | 85 | 1008.8 |
| 20260505235754 | 79 | 216 | 6.0 | 6.0 | 0.00 | 0.00 | 0.00 | 85 | 1008.6 |
| 20260505235252 | 79 | 224 | 3.0 | 6.0 | 0.00 | 0.00 | 0.00 | 85 | 1008.6 |
| 20260505234749 | 79 | 217 | 6.0 | 8.0 | 0.00 | 0.00 | 0.00 | 85 | 1008.7 |
| 20260505234246 | 79 | 259 | 5.0 | 6.0 | 0.00 | 0.00 | 0.00 | 85 | 1008.5 |
| 20260505233743 | 79 | 225 | 7.0 | 10.0 | 0.00 | 0.00 | 0.00 | 84 | 1008.2 |
| 20260505233241 | 79 | 209 | 8.0 | 11.0 | 0.00 | 0.00 | 0.00 | 84 | 1008.4 |
| 20260505232738 | 79 | 111 | 5.0 | 6.0 | 0.00 | 0.00 | 0.00 | 84 | 1008.3 |
| 20260505232235 | 79 | 225 | 10.0 | 10.0 | 0.00 | 0.00 | 0.00 | 83 | 1008.3 |
| 20260505231732 | 79 | 265 | 3.0 | 9.0 | 0.00 | 0.00 | 0.00 | 83 | 1008.4 |
| 20260505231231 | 79 | 229 | 6.0 | 7.0 | 0.00 | 0.00 | 0.00 | 83 | 1008.4 |
| 20260505230728 | 79 | 227 | 4.0 | 7.0 | 0.00 | 0.00 | 0.00 | 83 | 1008.5 |
| 20260505230225 | 79 | 198 | 3.0 | 6.0 | 0.00 | 0.00 | 0.00 | 83 | 1008.7 |
| 20260505225721 | 80 | 202 | 4.0 | 13.0 | 0.00 | 0.00 | 0.00 | 82 | 1008.5 |
| 20260505225219 | 80 | 116 | 5.0 | 8.0 | 0.00 | 0.00 | 0.00 | 82 | 1008.4 |
| 20260505224714 | 80 | 182 | 6.0 | 8.0 | 0.00 | 0.00 | 0.00 | 81 | 1008.6 |
| 20260505224212 | 80 | 218 | 3.0 | 8.0 | 0.00 | 0.00 | 0.00 | 80 | 1008.6 |
| 20260505223709 | 80 | 168 | 4.0 | 7.0 | 0.00 | 0.00 | 0.00 | 81 | 1008.5 |
| 20260505223205 | 80 | 176 | 5.0 | 9.0 | 0.00 | 0.00 | 0.00 | 81 | 1008.7 |
| 20260505222701 | 80 | 263 | 2.0 | 5.0 | 0.00 | 0.00 | 0.00 | 81 | 1008.8 |
| 20260505222157 | 80 | 220 | 2.0 | 7.0 | 0.00 | 0.00 | 0.00 | 80 | 1008.7 |
| 20260505221655 | 80 | 224 | 3.0 | 6.0 | 0.00 | 0.00 | 0.00 | 80 | 1008.6 |
| 20260505221151 | 80 | 232 | 6.0 | 6.0 | 0.00 | 0.00 | 0.00 | 80 | 1008.7 |
| 20260505220648 | 80 | 202 | 3.0 | 9.0 | 0.00 | 0.00 | 0.00 | 80 | 1008.5 |
| 20260505220146 | 80 | 250 | 2.0 | 6.0 | 0.00 | 0.00 | 0.00 | 80 | 1008.8 |
| 20260505215643 | 80 | 205 | 6.0 | 8.0 | 0.00 | 0.00 | 0.00 | 79 | 1008.7 |
| 20260505215141 | 81 | 180 | 2.0 | 12.0 | 0.00 | 0.00 | 0.00 | 79 | 1008.8 |
| 20260505214639 | 81 | 239 | 2.0 | 7.0 | 0.00 | 0.00 | 0.00 | 79 | 1008.8 |
| 20260505214136 | 81 | 214 | 2.0 | 5.0 | 0.00 | 0.00 | 0.00 | 79 | 1008.5 |
| 20260505213634 | 81 | 178 | 3.0 | 8.0 | 0.00 | 0.00 | 0.00 | 78 | 1008.6 |
| 20260505213130 | 81 | 274 | 3.0 | 4.0 | 0.00 | 0.00 | 0.00 | 79 | 1008.8 |
| 20260505212626 | 82 | 204 | 5.0 | 7.0 | 0.00 | 0.00 | 0.00 | 78 | 1008.8 |
| 20260505212124 | 81 | 222 | 3.0 | 10.0 | 0.00 | 0.00 | 0.00 | 78 | 1008.7 |
| 20260505211621 | 82 | 208 | 5.0 | 9.0 | 0.00 | 0.00 | 0.00 | 78 | 1008.9 |
| 20260505211118 | 81 | 205 | 2.0 | 6.0 | 0.00 | 0.00 | 0.00 | 78 | 1008.8 |
| 20260505210614 | 82 | 166 | 4.0 | 5.0 | 0.00 | 0.00 | 0.00 | 78 | 1008.8 |
| 20260505210111 | 81 | 40 | 2.0 | 5.0 | 0.00 | 0.00 | 0.00 | 78 | 1008.8 |
| 20260505205609 | 81 | 205 | 5.0 | 9.0 | 0.00 | 0.00 | 0.00 | 78 | 1008.8 |
| 20260505205107 | 81 | 213 | 8.0 | 10.0 | 0.00 | 0.00 | 0.00 | 78 | 1009.0 |
| 20260505204604 | 80 | 201 | 5.0 | 8.0 | 0.00 | 0.00 | 0.00 | 78 | 1009.0 |
| 20260505204101 | 80 | 95 | 2.0 | 6.0 | 0.00 | 0.00 | 0.00 | 79 | 1009.1 |
| 20260505203557 | 81 | 221 | 5.0 | 10.0 | 0.00 | 0.00 | 0.00 | 79 | 1009.4 |
| 20260505203055 | 81 | 276 | 4.0 | 10.0 | 0.00 | 0.00 | 0.00 | 78 | 1009.3 |
| 20260505202550 | 81 | 190 | 7.0 | 8.0 | 0.00 | 0.00 | 0.00 | 78 | 1009.8 |
| 20260505202047 | 81 | 240 | 4.0 | 5.0 | 0.00 | 0.00 | 0.00 | 78 | 1009.5 |
| 20260505201543 | 82 | 170 | 5.0 | 9.0 | 0.00 | 0.00 | 0.00 | 77 | 1009.5 |
| 20260505201041 | 81 | 225 | 2.0 | 7.0 | 0.00 | 0.00 | 0.00 | 78 | 1009.4 |
| 20260505200539 | 81 | 200 | 6.0 | 7.0 | 0.00 | 0.00 | 0.00 | 80 | 1009.6 |
| 20260505200036 | 80 | 182 | 4.0 | 6.0 | 0.00 | 0.00 | 0.00 | 81 | 1009.5 |
| 20260505195532 | 80 | 236 | 3.0 | 9.0 | 0.00 | 0.00 | 0.00 | 81 | 1009.6 |
| 20260505195029 | 79 | 163 | 3.0 | 6.0 | 0.00 | 0.00 | 0.00 | 82 | 1009.5 |
| 20260505194526 | 80 | 126 | 2.0 | 7.0 | 0.00 | 0.00 | 0.00 | 83 | 1009.6 |
| 20260505194021 | 79 | 259 | 4.0 | 6.0 | 0.00 | 0.00 | 0.00 | 82 | 1009.9 |
| 20260505193519 | 80 | 190 | 4.0 | 12.0 | 0.00 | 0.00 | 0.00 | 82 | 1009.9 |
| 20260505193016 | 79 | 212 | 4.0 | 5.0 | 0.00 | 0.00 | 0.00 | 83 | 1009.8 |
| 20260505192515 | 78 | 198 | 4.0 | 6.0 | 0.00 | 0.00 | 0.00 | 84 | 1010.0 |
| 20260505192013 | 78 | 197 | 5.0 | 9.0 | 0.00 | 0.00 | 0.00 | 84 | 1010.3 |
| 20260505191511 | 78 | 208 | 1.0 | 5.0 | 0.00 | 0.00 | 0.00 | 87 | 1010.2 |
| 20260505191009 | 77 | 259 | 3.0 | 7.0 | 0.00 | 0.00 | 0.00 | 87 | 1010.0 |
| 20260505190508 | 77 | 205 | 0.0 | 5.0 | 0.00 | 0.00 | 0.00 | 87 | 1010.2 |
| 20260505190004 | 77 | 183 | 4.0 | 7.0 | 0.00 | 0.00 | 0.00 | 87 | 1010.4 |
| 20260505185502 | 78 | 238 | 2.0 | 4.0 | 0.00 | 0.00 | 0.00 | 86 | 1010.4 |
| 20260505184957 | 78 | 211 | 2.0 | 5.0 | 0.00 | 0.00 | 0.00 | 85 | 1010.3 |
| 20260505184455 | 78 | 216 | 3.0 | 10.0 | 0.00 | 0.00 | 0.00 | 83 | 1010.4 |
| 20260505183951 | 79 | 217 | 5.0 | 6.0 | 0.00 | 0.00 | 0.00 | 81 | 1010.5 |
| 20260505183448 | 79 | 3 | 1.0 | 5.0 | 0.00 | 0.00 | 0.00 | 80 | 1010.5 |
| 20260505182945 | 79 | 297 | 4.0 | 5.0 | 0.00 | 0.00 | 0.00 | 80 | 1010.5 |
| 20260505182442 | 79 | 206 | 2.0 | 5.0 | 0.00 | 0.00 | 0.00 | 80 | 1010.4 |
| 20260505181938 | 79 | 206 | 4.0 | 8.0 | 0.00 | 0.00 | 0.00 | 79 | 1010.2 |
| 20260505181435 | 80 | 182 | 3.0 | 6.0 | 0.00 | 0.00 | 0.00 | 79 | 1010.1 |
| 20260505180932 | 80 | 242 | 2.0 | 5.0 | 0.00 | 0.00 | 0.00 | 79 | 1010.2 |
| 20260505180428 | 80 | 242 | 3.0 | 6.0 | 0.00 | 0.00 | 0.00 | 78 | 1010.3 |
| 20260505175925 | 80 | 212 | 6.0 | 6.0 | 0.00 | 0.00 | 0.00 | 79 | 1010.3 |
| 20260505175422 | 80 | 196 | 8.0 | 12.0 | 0.00 | 0.00 | 0.00 | 78 | 1010.3 |
| 20260505174918 | 80 | 212 | 4.0 | 6.0 | 0.00 | 0.00 | 0.00 | 79 | 1010.3 |
| 20260505174416 | 80 | 174 | 5.0 | 5.0 | 0.00 | 0.00 | 0.00 | 79 | 1010.2 |
| 20260505173912 | 79 | 285 | 6.0 | 8.0 | 0.00 | 0.00 | 0.00 | 79 | 1010.4 |
| 20260505173408 | 79 | 242 | 5.0 | 6.0 | 0.00 | 0.00 | 0.00 | 80 | 1010.7 |
| 20260505172905 | 79 | 192 | 6.0 | 9.0 | 0.00 | 0.00 | 0.00 | 79 | 1010.5 |
| 20260505172403 | 79 | 308 | 4.0 | 5.0 | 0.00 | 0.00 | 0.00 | 81 | 1010.4 |
| 20260505171902 | 79 | 257 | 4.0 | 9.0 | 0.00 | 0.00 | 0.00 | 80 | 1010.7 |
| 20260505171359 | 79 | 161 | 3.0 | 7.0 | 0.00 | 0.00 | 0.00 | 80 | 1010.3 |
| 20260505170856 | 79 | 183 | 6.0 | 10.0 | 0.00 | 0.00 | 0.00 | 80 | 1010.5 |
| 20260505170353 | 79 | 264 | 6.0 | 8.0 | 0.00 | 0.00 | 0.00 | 80 | 1010.6 |
| 20260505165848 | 78 | 158 | 5.0 | 9.0 | 0.00 | 0.00 | 0.00 | 80 | 1010.4 |
| 20260505165344 | 78 | 225 | 2.0 | 3.0 | 0.00 | 0.00 | 0.00 | 82 | 1010.7 |
| 20260505164840 | 78 | 195 | 4.0 | 4.0 | 0.00 | 0.00 | 0.00 | 81 | 1010.7 |
| 20260505164337 | 78 | 182 | 2.0 | 6.0 | 0.00 | 0.00 | 0.00 | 81 | 1010.9 |
| 20260505163835 | 78 | 93 | 1.0 | 6.0 | 0.00 | 0.00 | 0.00 | 81 | 1010.7 |
| 20260505163334 | 78 | 338 | 2.0 | 4.0 | 0.00 | 0.00 | 0.00 | 81 | 1010.9 |
| 20260505162832 | 78 | 220 | 3.0 | 4.0 | 0.00 | 0.00 | 0.00 | 81 | 1010.5 |
| 20260505162328 | 78 | 222 | 4.0 | 7.0 | 0.00 | 0.00 | 0.00 | 81 | 1010.9 |
| 20260505161825 | 78 | 221 | 4.0 | 7.0 | 0.00 | 0.00 | 0.00 | 80 | 1010.6 |
| 20260505161322 | 78 | 250 | 2.0 | 4.0 | 0.00 | 0.00 | 0.00 | 81 | 1010.7 |
| 20260505160819 | 78 | 243 | 5.0 | 6.0 | 0.00 | 0.00 | 0.00 | 80 | 1010.7 |
| 20260505160317 | 78 | 261 | 4.0 | 5.0 | 0.00 | 0.00 | 0.00 | 80 | 1010.6 |
| 20260505153256 | 78 | 167 | 3.0 | 6.0 | 0.00 | 0.00 | 0.00 | 80 | 1010.7 |
| 20260505152753 | 78 | 242 | 5.0 | 7.0 | 0.00 | 0.00 | 0.00 | 80 | 1010.5 |
| 20260505152250 | 78 | 254 | 3.0 | 5.0 | 0.00 | 0.00 | 0.00 | 80 | 1010.4 |
| 20260505151749 | 78 | 216 | 4.0 | 7.0 | 0.00 | 0.00 | 0.00 | 80 | 1010.4 |
| 20260505151247 | 78 | 154 | 3.0 | 7.0 | 0.00 | 0.00 | 0.00 | 80 | 1010.4 |
| 20260505150744 | 78 | 124 | 3.0 | 5.0 | 0.00 | 0.00 | 0.00 | 80 | 1010.5 |
| 20260505150242 | 78 | 187 | 4.0 | 9.0 | 0.00 | 0.00 | 0.00 | 80 | 1010.5 |
| 20260505140211 | 76 | 261 | 3.0 | 9.0 | 0.00 | 0.00 | 0.00 | 84 | 1010.3 |
| 20260505130135 | 74 | 173 | 4.0 | 4.0 | 0.00 | 0.00 | 0.00 | 87 | 1010.6 |
| 20260505124625 | 73 | 178 | 3.0 | 4.0 | 0.00 | 0.00 | 0.00 | 88 | 1010.1 |
| 20260505124121 | 73 | 237 | 4.0 | 6.0 | 0.00 | 0.00 | 0.00 | 88 | 1010.1 |
| 20260505123617 | 73 | 219 | 3.0 | 4.0 | 0.00 | 0.00 | 0.00 | 88 | 1010.1 |
| 20260505123114 | 73 | 173 | 2.0 | 4.0 | 0.00 | 0.00 | 0.00 | 88 | 1010.1 |
| 20260505122611 | 73 | 174 | 2.0 | 4.0 | 0.00 | 0.00 | 0.00 | 88 | 1010.2 |
| 20260505122108 | 73 | 132 | 2.0 | 3.0 | 0.00 | 0.00 | 0.00 | 88 | 1010.2 |
| 20260505121604 | 73 | 198 | 2.0 | 5.0 | 0.00 | 0.00 | 0.00 | 88 | 1010.2 |
| 20260505121101 | 73 | 224 | 3.0 | 4.0 | 0.00 | 0.00 | 0.00 | 88 | 1010.0 |
| 20260505120557 | 73 | 240 | 3.0 | 4.0 | 0.00 | 0.00 | 0.00 | 88 | 1010.1 |
| 20260505120053 | 73 | 198 | 3.0 | 3.0 | 0.00 | 0.00 | 0.00 | 88 | 1009.8 |
| 20260505115548 | 73 | 211 | 2.0 | 4.0 | 0.00 | 0.00 | 0.00 | 88 | 1009.8 |
| 20260505115046 | 73 | 203 | 1.0 | 3.0 | 0.00 | 0.00 | 0.00 | 88 | 1009.7 |
| 20260505114542 | 73 | 280 | 1.0 | 4.0 | 0.00 | 0.00 | 0.00 | 88 | 1010.0 |
| 20260505114039 | 73 | 100 | 2.0 | 3.0 | 0.00 | 0.00 | 0.00 | 88 | 1009.9 |
| 20260505113535 | 73 | 230 | 2.0 | 4.0 | 0.00 | 0.00 | 0.00 | 87 | 1010.1 |
| 20260505113032 | 73 | 251 | 0.0 | 3.0 | 0.00 | 0.00 | 0.00 | 87 | 1009.7 |
| 20260505112528 | 73 | 235 | 2.0 | 4.0 | 0.00 | 0.00 | 0.00 | 87 | 1009.8 |
| 20260505112026 | 73 | 232 | 3.0 | 4.0 | 0.00 | 0.00 | 0.00 | 87 | 1009.8 |
| 20260505111520 | 73 | 173 | 2.0 | 5.0 | 0.00 | 0.00 | 0.00 | 87 | 1009.6 |
| 20260505111016 | 73 | 175 | 0.0 | 5.0 | 0.00 | 0.00 | 0.00 | 87 | 1009.6 |
| 20260505110513 | 73 | 253 | 3.0 | 4.0 | 0.00 | 0.00 | 0.00 | 87 | 1009.6 |
| 20260505101945 | 72 | 301 | 1.0 | 4.0 | 0.00 | 0.00 | 0.00 | 86 | 1009.5 |
| 20260505101438 | 72 | 148 | 1.0 | 4.0 | 0.00 | 0.00 | 0.00 | 86 | 1009.4 |
| 20260505100934 | 72 | 256 | 1.0 | 5.0 | 0.00 | 0.00 | 0.00 | 86 | 1009.8 |
| 20260505100432 | 72 | 240 | 1.0 | 4.0 | 0.00 | 0.00 | 0.00 | 86 | 1009.7 |